Location: ??? ????
(38.0580°N, 23.1536°E)
Time: 13:43:02
(UTC+00:00)

Cosmos 1602 Rocket - Pass Details

Date: 13 December 2025
Orbit: 596 x 626 km, 82.5° (Epoch: 17 January)

Event Time Altitude Azimuth Distance (km) Brightness Sun altitude
Rises 15:42:19 0° 350° (N) 2,886 6.8 -6.8°
Reaches altitude 10° 15:44:34 10° 348° (NNW) 1,972 6.0 -7.2°
Maximum altitude 15:48:54 69° 265° (W) 653 3.9 -8.0°
Drops below altitude 10° 15:53:09 10° 183° (S) 1,939 6.5 -8.8°
Sets 15:55:21 0° 180° (S) 2,833 7.3 -9.2°
